Zurück zum Katalog

ONEWEB-0635

AktivKommunikationPO
NORAD 56076·PAYLOAD·🇬🇧 United Kingdom

Gestartet Mar 26, 2023 von Satish Dhawan Space Centre

Loading…

Nächste Überflüge (nächste 24 Stunden)

TLE

AktuellSource: CelesTrak SupGP

Epoche: Sep 14, 2026, 07:20 UTC

1 56076C 23043AG  26257.30604583  .00002199  00000+0  58487-2 0  2578
2 56076  87.8982 241.4280 0002272  90.3842  17.3060 13.15541430    13

Verfolge ONEWEB-0635 in Echtzeit mit AllMySat

Download on the App Store